Tracking 20942 objects as of 10-Jul-2020
HD Live streaming from Space Station
objects crossing your sky now

FENGYUN 1C DEB

Track FENGYUN 1C DEB now!
10-day predictions


NORAD ID: 32114
Int'l Code: 1999-025CRG
Perigee: 698.0 km
Apogee: 812.9 km
Inclination: 99.9 °
Period: 99.8 minutes
Semi major axis: 7126 km
RCS: 0.0153 m2 (small)
Launch date: May 10, 1999
Source: People's Republic of China (PRC)
Launch site: Taiyaun Space Center, China (TSC)

Note: This is SATELLITE DEBRIS
aabbcc
Your satellite tracking list
Your tracking list is empty




NASA's NSSDC Master Catalog

Two Line Element Set (TLE):
1 32114U 99025CRG 20191.03454286  .00000266  00000-0  93796-4 0  9993
2 32114  99.9292 278.0595 0080629  15.7410 344.6254 14.43096335682420
Source of the keplerian elements: AFSPC